[[{"header":{"parameterUnit":"m.s-1","parameterCategory":1,"la1":30.2991,"la2":30.254,"lo1":-89.0895,"lo2":-89.0444,"dy":0.0017,"dx":0.0017,"nx":28,"ny":28,"refTime":"2023-08-02T09:00:00:Z","depth":0,"parameterNumber":2,"parameterNumberName":"U-component_of_WINDS"},"data":[0,0,0,0,0,0,0,0,0,0,0,0,0,0,0,0,0,0,0,0,0,0,0,0,0,0,0,0,0,0,0,0,0,0,0,0,0,0,0,0,0,0,0,0,0,0,0,0,0,0,0,0,0,0,0,0,0,0,-0.214,-0.214,0,-0.2166,-0.2166,-0.2166,-0.2198,-0.2199,-0.2199,-0.22,-0.2224,-0.2224,-0.2224,0,0,0,0,0,0,0,0,0,0,0,0,0,-0.2118,-0.2118,-0.214,-0.214,-0.2141,-0.2166,-0.2166,-0.2166,-0.2198,-0.2199,-0.22,-0.22,-0.2224,-0.2224,-0.2224,0,0,0,0,0,0,0,0,0,0,0,0,0,-0.2134,-0.2118,-0.214,-0.216,-0.2162,-0.2165,-0.2166,-0.2166,-0.2198,-0.2199,-0.22,-0.2201,-0.2224,-0.2224,-0.2224,-0.221,0,0,-0.2225,-0.2225,0,0,0,0,0,0,0,0,-0.2133,-0.2134,-0.2157,-0.2158,-0.2161,-0.218,-0.2167,-0.2181,-0.2198,-0.2184,-0.22,-0.2201,-0.2208,-0.221,-0.2213,-0.2211,-0.2212,-0.2225,-0.2225,-0.2225,-0.2225,0,0,0,0,0,0,0,-0.2131,-0.2133,-0.215,-0.2157,-0.2159,-0.2167,-0.217,-0.217,-0.2191,-0.2186,-0.2188,-0.2191,-0.221,-0.2213,-0.2214,-0.2212,-0.2225,-0.2225,-0.2225,-0.2225,-0.2199,-0.2198,0,0,0,0,0,0,-0.2128,-0.2132,-0.2149,-0.2151,-0.2148,-0.2167,-0.217,-0.2173,-0.2192,-0.2195,-0.219,-0.2192,-0.2212,-0.2213,-0.2215,-0.2198,-0.2225,-0.2225,-0.2225,-0.22,-0.2199,-0.2198,0,0,0,0,0,0,-0.2127,-0.2129,-0.2148,-0.2142,-0.2145,-0.2166,-0.2169,-0.2173,-0.2176,-0.2195,-0.2199,-0.2189,-0.2212,-0.2214,-0.2211,-0.2199,-0.2225,-0.2226,-0.2201,-0.2199,-0.2198,-0.2165,0,0,0,0,0,0,-0.2126,-0.2128,-0.2123,-0.2142,-0.2146,-0.2144,-0.2168,-0.2173,-0.2176,-0.2179,-0.2195,-0.2198,-0.2213,-0.221,-0.2211,-0.22,-0.2226,-0.2202,-0.22,-0.2199,-0.2167,-0.2163,-0.2159,0,0,0,0,0,-0.2125,-0.2113,-0.2123,-0.2125,-0.214,-0.2143,-0.2145,-0.2163,-0.2175,-0.217,-0.2183,-0.2198,-0.2201,-0.221,-0.2211,-0.2199,-0.2203,-0.2201,-0.2199,-0.2169,-0.2163,-0.2159,0,0,0,0,0,0,-0.2091,-0.2115,-0.2127,-0.212,-0.213,-0.2149,-0.2143,-0.2157,-0.2163,-0.2165,-0.2187,-0.219,-0.2183,-0.2192,-0.2201,-0.2186,-0.2204,-0.2202,-0.2181,-0.2176,-0.2172,-0.2169,-0.2226,0,0,0,0,0,-0.2083,-0.2085,-0.2106,-0.2097,-0.2102,-0.2121,-0.2124,-0.2137,-0.2147,-0.2151,-0.2163,-0.2172,-0.2175,-0.2176,-0.218,-0.2169,-0.2172,-0.2162,-0.2158,-0.2155,-0.2152,-0.2146,-0.2141,-0.2192,-0.2192,-0.2192,0,0,-0.2066,-0.2079,-0.2079,-0.2091,-0.21,-0.21,-0.2124,-0.2124,-0.2124,-0.2151,-0.2148,-0.2157,-0.2169,-0.2161,-0.2158,-0.2167,-0.2139,-0.2152,-0.2149,-0.2149,-0.2143,-0.2138,-0.2134,-0.219,-0.2191,-0.2191,0,0,-0.2034,-0.2045,-0.2039,-0.2048,-0.2061,-0.2075,-0.2073,-0.2091,-0.2098,-0.2096,-0.2116,-0.2116,-0.2121,-0.2128,-0.2132,-0.2104,-0.2118,-0.2105,-0.2083,-0.2076,-0.2072,-0.2069,-0.2057,-0.2053,-0.2103,-0.2103,-0.2103,0,-0.201,-0.2012,-0.2034,-0.2032,-0.2036,-0.2062,-0.2055,-0.2063,-0.2076,-0.2078,-0.2089,-0.2096,-0.2105,-0.2099,-0.2092,-0.2096,-0.2093,-0.2102,-0.2071,-0.2068,-0.2065,-0.2054,-0.205,-0.2101,-0.2101,-0.2102,-0.2102,0,-0.1981,-0.1983,-0.1976,-0.1989,-0.1993,-0.1989,-0.201,-0.2011,-0.2024,-0.2036,-0.2033,-0.2046,-0.2053,-0.2053,-0.2066,-0.2048,-0.2053,-0.2068,-0.2085,-0.2058,-0.2048,-0.2044,-0.2099,-0.2099,-0.21,-0.21,0,0,-0.1926,-0.1953,-0.195,-0.1956,-0.1973,-0.1974,-0.1972,-0.1979,-0.1979,-0.1988,-0.1985,-0.1989,-0.2002,-0.2007,-0.2021,-0.2016,-0.1991,-0.2031,-0.2031,-0.2021,-0.1971,-0.1958,-0.1953,-0.2002,-0.2001,-0.2,-0.1969,0,-0.1896,-0.1892,-0.1912,-0.1903,-0.1904,-0.1929,-0.1927,-0.1937,-0.1948,-0.195,-0.1963,-0.1965,-0.1983,-0.1986,-0.1982,-0.1995,-0.1981,-0.1998,-0.1997,-0.1997,-0.1991,-0.1948,-0.1935,-0.1904,-0.1966,-0.1965,-0.1965,0,-0.1859,-0.1867,-0.1858,-0.1876,-0.1877,-0.1874,-0.1882,-0.1885,-0.1896,-0.1905,-0.1911,-0.1928,-0.1925,-0.1944,-0.1941,-0.1952,-0.1953,-0.1959,-0.1959,-0.1957,-0.1977,-0.1943,-0.1895,-0.189,-0.1959,-0.1959,-0.196,0,-0.1817,-0.1825,-0.1821,-0.1826,-0.1847,-0.1845,-0.1853,-0.1867,-0.187,-0.1877,-0.1879,-0.1886,-0.1888,-0.1893,-0.1911,-0.1923,-0.1904,-0.1925,-0.191,-0.1909,-0.1902,-0.1902,-0.1852,-0.1908,-0.1908,-0.1908,-0.1908,0,-0.1779,-0.1772,-0.1802,-0.1799,-0.1792,-0.1816,-0.1808,-0.1819,-0.183,-0.1829,-0.1853,-0.1851,-0.1876,-0.1877,-0.1891,-0.1885,-0.1886,-0.1892,-0.1896,-0.1889,-0.1888,-0.1888,-0.1889,-0.1907,-0.1907,-0.1907,-0.1907,0,-0.1729,-0.175,-0.1746,-0.1768,-0.1773,-0.1766,-0.1784,-0.1782,-0.1796,-0.1794,-0.1795,-0.1817,-0.1819,-0.1838,-0.1845,-0.1855,-0.1842,-0.1851,-0.1838,-0.1839,-0.1822,-0.1823,-0.1768,-0.1761,-0.1824,-0.1823,-0.1823,0,-0.1702,-0.1697,-0.1719,-0.172,-0.1728,-0.173,-0.1734,-0.1757,-0.176,-0.1774,-0.1769,-0.1774,-0.1779,-0.1781,-0.1797,-0.1802,-0.1809,-0.179,-0.181,-0.1803,-0.1806,-0.1805,-0.1803,-0.1784,-0.1784,-0.1783,-0.1782,0,-0.1651,-0.1662,-0.1667,-0.1675,-0.1679,-0.1686,-0.1695,-0.1695,-0.1721,-0.1722,-0.1726,-0.1729,-0.1737,-0.174,-0.1748,-0.1756,-0.1773,-0.1777,-0.1773,-0.1764,-0.1756,-0.1758,-0.1823,-0.1777,-0.1778,-0.1778,-0.1778,-0.1778,-0.161,-0.1607,-0.1622,-0.1626,-0.1636,-0.1644,-0.1642,-0.1657,-0.166,-0.1668,-0.1682,-0.1683,-0.1696,-0.1708,-0.1715,-0.1716,-0.1725,-0.1721,-0.1719,-0.1717,-0.1712,-0.1758,-0.1718,-0.1718,-0.1718,-0.1718,-0.1718,0,-0.1559,-0.157,-0.1574,-0.1586,-0.1589,-0.1607,-0.1618,-0.1619,-0.162,-0.1631,-0.1635,-0.1639,-0.1643,-0.1659,-0.1665,-0.1662,-0.1669,-0.1662,-0.1661,-0.1662,-0.1704,-0.1706,-0.1656,-0.1656,-0.1656,-0.1656,-0.1656,-0.1656,-0.1532,-0.1527,-0.154,-0.1539,-0.1551,-0.1552,-0.1557,-0.1564,-0.1572,-0.1575,-0.1579,-0.1591,-0.1604,-0.1611,-0.1615,-0.1619,-0.1619,-0.1609,-0.1615,-0.1654,-0.1659,-0.1665,-0.1666,-0.1609,-0.1609,-0.1573,-0.1573,-0.1573]},{"header":{"parameterUnit":"m.s-1","parameterCategory":1,"la1":30.2991,"la2":30.254,"lo1":-89.0895,"lo2":-89.0444,"dy":0.0017,"dx":0.0017,"nx":28,"ny":28,"refTime":"2023-08-02T09:00:00:Z","depth":0,"parameterNumber":3,"parameterNumberName":"V-component_of_WINDS"},"data":[0,0,0,0,0,0,0,0,0,0,0,0,0,0,0,0,0,0,0,0,0,0,0,0,0,0,0,0,0,0,0,0,0,0,0,0,0,0,0,0,0,0,0,0,0,0,0,0,0,0,0,0,0,0,0,0,0,0,-2.1675,-2.1677,0,-2.1802,-2.1804,-2.1805,-2.1838,-2.1837,-2.1837,-2.1836,-2.1961,-2.1965,-2.1969,0,0,0,0,0,0,0,0,0,0,0,0,0,-2.1459,-2.1462,-2.1675,-2.1677,-2.1679,-2.1802,-2.1804,-2.1805,-2.1838,-2.1837,-2.1836,-2.1836,-2.196,-2.1965,-2.197,0,0,0,0,0,0,0,0,0,0,0,0,0,-2.1566,-2.1464,-2.1675,-2.171,-2.1714,-2.1802,-2.1804,-2.1806,-2.1838,-2.1837,-2.1836,-2.1835,-2.1958,-2.1964,-2.197,-2.203,0,0,-2.1989,-2.1991,0,0,0,0,0,0,0,0,-2.156,-2.1574,-2.1703,-2.1708,-2.1713,-2.1803,-2.1773,-2.1881,-2.1839,-2.1791,-2.1836,-2.1835,-2.1909,-2.1919,-2.1945,-2.2036,-2.2042,-2.1989,-2.1993,-2.1996,-2.1997,0,0,0,0,0,0,0,-2.1552,-2.1568,-2.1725,-2.1705,-2.1711,-2.1718,-2.1732,-2.1794,-2.1855,-2.1795,-2.1798,-2.1813,-2.1912,-2.194,-2.1949,-2.2044,-2.1989,-2.1995,-2.1998,-2.2001,-2.2191,-2.2192,0,0,0,0,0,0,-2.1539,-2.1562,-2.1721,-2.1729,-2.1632,-2.1723,-2.1739,-2.1775,-2.1854,-2.1865,-2.1814,-2.1814,-2.193,-2.1941,-2.1953,-2.2029,-2.1996,-2.2001,-2.2005,-2.2189,-2.2191,-2.2192,0,0,0,0,0,0,-2.1534,-2.1553,-2.1716,-2.1646,-2.1668,-2.1728,-2.1769,-2.1778,-2.1806,-2.1868,-2.1879,-2.1831,-2.1929,-2.1945,-2.2011,-2.2034,-2.2004,-2.2009,-2.2188,-2.219,-2.2192,-2.2181,0,0,0,0,0,0,-2.1528,-2.1551,-2.1575,-2.1647,-2.1671,-2.1773,-2.177,-2.1782,-2.1817,-2.1819,-2.1888,-2.1898,-2.193,-2.2002,-2.2017,-2.2042,-2.2014,-2.2186,-2.2189,-2.2191,-2.218,-2.2183,-2.2185,0,0,0,0,0,-2.152,-2.1566,-2.1576,-2.1595,-2.1703,-2.1775,-2.1788,-2.1825,-2.1819,-2.1843,-2.1883,-2.1896,-2.2029,-2.2009,-2.2026,-2.2053,-2.2184,-2.2188,-2.2191,-2.2179,-2.2182,-2.2185,0,0,0,0,0,0,-2.1494,-2.1576,-2.1588,-2.1659,-2.171,-2.178,-2.1812,-2.1828,-2.188,-2.1879,-2.1922,-2.1937,-2.2001,-2.2033,-2.2009,-2.2115,-2.2107,-2.2114,-2.2091,-2.2095,-2.2098,-2.2088,-2.2019,0,0,0,0,0,-2.1497,-2.1549,-2.1618,-2.1674,-2.1699,-2.1751,-2.1783,-2.1808,-2.1861,-2.1882,-2.1927,-2.1977,-2.2031,-2.2065,-2.2118,-2.2185,-2.22,-2.2212,-2.2214,-2.2216,-2.2221,-2.226,-2.2265,-2.2203,-2.2203,-2.2203,0,0,-2.1503,-2.1554,-2.1584,-2.167,-2.1712,-2.1764,-2.1769,-2.1823,-2.1862,-2.189,-2.1956,-2.1991,-2.205,-2.2118,-2.2149,-2.2147,-2.2242,-2.222,-2.2221,-2.2226,-2.2263,-2.2269,-2.2274,-2.2205,-2.2205,-2.2204,0,0,-2.154,-2.1584,-2.1636,-2.1679,-2.1743,-2.1778,-2.179,-2.1858,-2.1883,-2.1951,-2.1973,-2.2019,-2.211,-2.2151,-2.2184,-2.2239,-2.2252,-2.2254,-2.2268,-2.2305,-2.231,-2.2314,-2.2333,-2.234,-2.2259,-2.2259,-2.2259,0,-2.1538,-2.1619,-2.166,-2.1715,-2.1751,-2.1781,-2.1833,-2.1872,-2.1949,-2.1974,-2.197,-2.2086,-2.2127,-2.2205,-2.2219,-2.2244,-2.2259,-2.2246,-2.2306,-2.2311,-2.2316,-2.2334,-2.2341,-2.2259,-2.2259,-2.2259,-2.2259,0,-2.1614,-2.167,-2.1704,-2.178,-2.1821,-2.1873,-2.1921,-2.1957,-2.1978,-2.2013,-2.2081,-2.2133,-2.2197,-2.2217,-2.2237,-2.2298,-2.2294,-2.2298,-2.229,-2.2321,-2.2339,-2.2347,-2.2259,-2.2259,-2.2259,-2.2259,0,0,-2.1637,-2.1736,-2.1748,-2.1783,-2.1857,-2.19,-2.1954,-2.2019,-2.2049,-2.2101,-2.2147,-2.2224,-2.2229,-2.2266,-2.2291,-2.2324,-2.2363,-2.2324,-2.2325,-2.2329,-2.2433,-2.2429,-2.2437,-2.2373,-2.2375,-2.2376,-2.2428,0,-2.1683,-2.1782,-2.1821,-2.1901,-2.1953,-2.1983,-2.203,-2.208,-2.2114,-2.2162,-2.2199,-2.2253,-2.2255,-2.2278,-2.2311,-2.2351,-2.2384,-2.2348,-2.2415,-2.2417,-2.2399,-2.2446,-2.2442,-2.2489,-2.2435,-2.2436,-2.2437,0,-2.1749,-2.1805,-2.1891,-2.1959,-2.1982,-2.2024,-2.2086,-2.2133,-2.219,-2.2212,-2.2255,-2.2279,-2.2336,-2.2325,-2.2404,-2.2378,-2.2408,-2.2432,-2.2434,-2.2441,-2.2428,-2.2454,-2.2504,-2.2511,-2.2449,-2.2448,-2.2447,0,-2.1757,-2.1853,-2.1917,-2.1946,-2.2028,-2.2056,-2.2091,-2.2148,-2.2184,-2.2238,-2.2262,-2.2321,-2.2353,-2.2398,-2.2437,-2.2426,-2.2512,-2.2505,-2.2531,-2.253,-2.2547,-2.2545,-2.2603,-2.2568,-2.2567,-2.2567,-2.2567,0,-2.1804,-2.1855,-2.1922,-2.1961,-2.2019,-2.2063,-2.2119,-2.2156,-2.2206,-2.2252,-2.2281,-2.2323,-2.2373,-2.2421,-2.2452,-2.2513,-2.2527,-2.2546,-2.2553,-2.2543,-2.2541,-2.2562,-2.256,-2.2569,-2.2569,-2.2568,-2.2568,0,-2.1821,-2.1868,-2.194,-2.2012,-2.2031,-2.2071,-2.2132,-2.2171,-2.2207,-2.2265,-2.2281,-2.2338,-2.2397,-2.244,-2.2516,-2.2537,-2.2601,-2.2609,-2.2582,-2.2586,-2.261,-2.2607,-2.2682,-2.2694,-2.2651,-2.2652,-2.2652,0,-2.1848,-2.1888,-2.1965,-2.1999,-2.2035,-2.2089,-2.2126,-2.2171,-2.2209,-2.2278,-2.2308,-2.2369,-2.2421,-2.2513,-2.256,-2.2618,-2.2627,-2.265,-2.2636,-2.2624,-2.2627,-2.2624,-2.2628,-2.2651,-2.2651,-2.2652,-2.2652,0,-2.1889,-2.1911,-2.1965,-2.2028,-2.2072,-2.2123,-2.2174,-2.22,-2.2254,-2.2295,-2.2357,-2.2397,-2.2475,-2.2535,-2.2598,-2.2633,-2.2651,-2.2656,-2.2665,-2.2655,-2.2637,-2.2647,-2.2586,-2.2654,-2.2654,-2.2653,-2.2653,-2.2653,-2.1912,-2.195,-2.201,-2.2069,-2.2113,-2.2161,-2.2201,-2.2243,-2.2296,-2.2364,-2.2387,-2.2451,-2.2507,-2.2594,-2.263,-2.2679,-2.2679,-2.2692,-2.2695,-2.2698,-2.2697,-2.263,-2.2691,-2.2691,-2.2691,-2.2691,-2.2691,0,-2.1955,-2.1996,-2.205,-2.2122,-2.2168,-2.2184,-2.2242,-2.2279,-2.2335,-2.2387,-2.2438,-2.2508,-2.2567,-2.2619,-2.268,-2.271,-2.272,-2.2724,-2.2722,-2.273,-2.2694,-2.268,-2.2715,-2.2715,-2.2715,-2.2715,-2.2715,-2.2715,-2.1983,-2.2047,-2.2076,-2.2162,-2.2203,-2.2266,-2.2298,-2.2342,-2.2384,-2.2462,-2.2512,-2.2546,-2.2598,-2.2663,-2.2718,-2.2731,-2.2752,-2.2754,-2.277,-2.2735,-2.2732,-2.2729,-2.2716,-2.2759,-2.2759,-2.2802,-2.2802,-2.2802]}]]